Ketchikan, AK

4:32 PM AKDT on May 25, 2018 (GMT -0800)
Ketchikan International

Weather History for PAKT - May, 2018

Change the Weather History Date:

Friday, May 11, 2018

  Actual Average Record
Temperature  
Mean Temperature 50 °F -  
Max Temperature 53 °F 57 °F 74 °F (1968)
Min Temperature 48 °F 40 °F 32 °F (2006)
Degree Days  
Heating Degree Days 14    
Moisture  
Dew Point 48 °F    
Average Humidity 92    
Maximum Humidity 100    
Minimum Humidity 82    
Precipitation  
Precipitation 0.00 in - - ()
Sea Level Pressure  
Sea Level Pressure 30.39 in    
Wind  
Wind Speed 6 mph (SE)    
Max Wind Speed 13 mph    
Max Gust Speed -    
Visibility 8 miles    
Events Rain    
Averages and records for this station are not official NWS values.
T = Trace of Precipitation, MM = Missing Value Source: NWS Daily Summary

Daily Weather History Graph

Daily Weather History Graph

Search for Another Location

Airport or City:

Astronomy

May. 11, 2018 Rise Set
Actual Time 4:44 AM AKDT 8:43 PM AKDT
Civil Twilight 3:57 AM AKDT 9:30 PM AKDT
Nautical Twilight 2:49 AM AKDT 10:40 PM AKDT
Astronomical Twilight 1:15 AM AKDT 12:10 AM AKDT
Moon 3:56 AM AKDT (5/11) 3:47 PM AKDT (5/11)
Length of Visible Light 17h 33m
Length of Day
15h 58m
Waning Crescent, 16% of the Moon is Illuminated
May 11
Waning Crescent
May 15
New
May 21
First Quarter
May 29
Full
Jun 6
Last Quarter

Hourly Weather History & Observations

Time (AKDT) Temp. Dew Point Humidity Pressure Visibility Wind Dir Wind Speed Gust Speed Precip Events Conditions
12:53 AM 48.9 °F 46.9 °F 93% 30.32 in 10.0 mi SSE 5.8 mph - N/A   Overcast
1:53 AM 48.9 °F 46.9 °F 93% 30.33 in 10.0 mi SSE 4.6 mph - N/A   Overcast
2:22 AM 48.9 °F 46.9 °F 93% 30.33 in 5.0 mi SSE 6.9 mph - N/A   Overcast
2:34 AM 48.9 °F 46.9 °F 93% 30.33 in 3.0 mi SSE 5.8 mph - N/A   Overcast
2:53 AM 48.9 °F 46.9 °F 93% 30.34 in 6.0 mi SSE 4.6 mph - N/A   Overcast
3:53 AM 48.9 °F 46.9 °F 93% 30.36 in 8.0 mi SSE 4.6 mph - N/A   Overcast
4:14 AM 48.2 °F 46.4 °F 93% 30.35 in 6.0 mi SSE 4.6 mph - N/A   Overcast
4:21 AM 48.9 °F 46.9 °F 93% 30.35 in 7.0 mi SSE 4.6 mph - N/A   Overcast
4:53 AM 48.9 °F 46.9 °F 93% 30.37 in 10.0 mi SSE 3.5 mph - N/A   Overcast
5:53 AM 48.9 °F 46.9 °F 93% 30.38 in 10.0 mi SSE 4.6 mph - N/A   Overcast
6:36 AM 48.9 °F 48.0 °F 97% 30.38 in 2.5 mi SE 9.2 mph - N/A   Overcast
6:38 AM 48.9 °F 48.0 °F 97% 30.38 in 3.0 mi SE 9.2 mph - N/A   Overcast
6:50 AM 48.2 °F 48.2 °F 100% 30.38 in 3.0 mi SE 8.1 mph - N/A   Overcast
6:53 AM 48.9 °F 48.0 °F 97% 30.38 in 3.0 mi SE 6.9 mph - N/A   Overcast
7:53 AM 50.0 °F 48.2 °F 94% 30.39 in 10.0 mi SSE 8.1 mph - N/A Rain Light Rain
9:53 AM 50.0 °F 48.2 °F 94% 30.41 in 10.0 mi SE 11.5 mph - N/A Rain Light Rain
10:53 AM 50.0 °F 48.2 °F 94% 30.42 in 10.0 mi SE 10.4 mph - N/A Rain Light Rain
12:53 PM 51.8 °F 48.2 °F 88% 30.43 in 10.0 mi SE 6.9 mph - N/A   Overcast
1:53 PM 51.8 °F 48.2 °F 88% 30.43 in 5.0 mi ESE 12.7 mph - N/A   Overcast
2:53 PM 51.8 °F 48.2 °F 88% 30.43 in 10.0 mi ESE 9.2 mph - N/A   Overcast
3:53 PM 53.6 °F 48.2 °F 82% 30.42 in 10.0 mi SE 9.2 mph - N/A   Overcast
4:53 PM 53.6 °F 48.2 °F 82% 30.41 in 10.0 mi ESE 9.2 mph - N/A   Overcast
5:53 PM 51.8 °F 48.2 °F 88% 30.40 in 10.0 mi SE 8.1 mph - N/A   Overcast
6:53 PM 51.8 °F 48.2 °F 88% 30.40 in 10.0 mi ESE 6.9 mph - N/A   Overcast
7:53 PM 51.8 °F 48.2 °F 88% 30.39 in 10.0 mi SE 8.1 mph - N/A   Overcast
8:53 PM 50.0 °F 48.2 °F 94% 30.40 in 10.0 mi SE 6.9 mph - N/A   Overcast
9:02 PM 50.0 °F 48.0 °F 93% 30.40 in 10.0 mi SE 5.8 mph - N/A   Overcast
9:53 PM 50.0 °F 48.0 °F 93% 30.40 in 7.0 mi SSE 4.6 mph - N/A   Overcast
10:00 PM 50.0 °F 48.0 °F 93% 30.40 in 10.0 mi SSE 4.6 mph - N/A   Overcast
10:07 PM 50.0 °F 48.0 °F 93% 30.40 in 10.0 mi SSE 4.6 mph - N/A   Overcast
10:21 PM 50.0 °F 48.0 °F 93% 30.40 in 10.0 mi South 4.6 mph - N/A   Overcast
10:38 PM 50.0 °F 48.0 °F 93% 30.40 in 10.0 mi South 4.6 mph - N/A   Overcast
10:53 PM 50.0 °F 48.0 °F 93% 30.40 in 10.0 mi SSE 3.5 mph - N/A   Overcast
11:00 PM 50.0 °F 48.0 °F 93% 30.40 in 10.0 mi SSE 3.5 mph - N/A   Overcast
11:21 PM 50.0 °F 48.0 °F 93% 30.40 in 10.0 mi SSE 3.5 mph - N/A   Overcast
11:53 PM 50.0 °F 48.0 °F 93% 30.40 in 10.0 mi Calm Calm - N/A   Overcast